Lexington Weather

Lexington, Massachusetts, USA

44°F
4/22/2024 8:52am 
  • Lexington Conditions: Clear
  • Temperature: 43.7°F / 6.5°CWarmer 3.8°F than last hour.
  • Dew Point: 27.7°FDecreased 1.1°Fsince last hour.
  • Relative Humidity: 53%Decreased 11.0% since last hour.
  • Wind: Calm, 10-min avg: Calm, gust: None
  • Barometer: 29.96 in Steady
  • Visibility: 10 miles
  • Rain Today: 0.00 in
  •   

Regional Weather Roundup
for Boston, MA

        
000
ASUS41 KBOX 170210
RWRBOX

REGIONAL WEATHER ROUNDUP
NATIONAL WEATHER SERVICE BOSTON/NORTON MA
1000 PM EDT TUE APR 16 2024

NOTE:  "FAIR" INDICATES FEW OR NO CLOUDS BELOW 12,000 FEET WITH NO 
SIGNIFICANT WEATHER AND/OR OBSTRUCTIONS TO VISIBILITY.

MAZALL-170300-
EASTERN MASSACHUSETTS
  
CITY           SKY/WX    TMP DP  RH WIND       PRES   REMARKS
BOSTON         PTCLDY    54  39  57 N3        30.11R                  
BEVERLY        CLEAR     49  38  65 NE5       30.11R                  
LAWRENCE       CLEAR     51  32  48 N8        30.14R                  
BEDFORD        CLEAR     47  35  63 CALM      30.10R                  
NORWOOD        CLEAR     55  38  52 CALM      30.11R                  
MARSHFIELD     CLEAR     46  39  76 W3        30.11R                  
PLYMOUTH       PTCLDY    48  40  73 CALM      30.11R                  
TAUNTON        CLEAR     48  35  60 CALM      30.11R                  
NEW BEDFORD    CLEAR     49  42  77 CALM      30.11R                  
$$

MAZALL-170300-
CAPE COD AND THE ISLANDS
  
CITY           SKY/WX    TMP DP  RH WIND       PRES   REMARKS
FALMOUTH       CLEAR     46  39  76 CALM      30.11R                  
HYANNIS        CLEAR     45  39  79 CALM      30.10S                  
CHATHAM        CLEAR     49  45  86 SW6       30.12R                  
PROVINCETOWN   CLEAR     50  44  80 S6        30.12S                  
NANTUCKET      CLEAR     48  40  73 W6        30.13R                  
MARTHAS VNYRD  CLEAR     46  42  86 SW3       30.12R                  
$$
 
MAZALL-170300-
CENTRAL AND WESTERN MASSACHUSETTS
  
CITY           SKY/WX    TMP DP  RH WIND       PRES   REMARKS
WORCESTER      CLEAR     54  28  36 W8        30.12R                  
FITCHBURG      CLEAR     50  34  54 NW3       30.13R                  
ORANGE         CLEAR     46  36  68 CALM      30.14R                  
SPRINGFIELD    PTCLDY    59  32  36 NW5       30.11R                  
WESTFIELD      CLEAR     56  31  38 W8        30.14R                  
NORTH ADAMS    CLEAR     47  32  56 CALM      30.15R                  
PITTSFIELD     CLEAR     49  28  44 SW3       30.14R                  
$$
 
RIZALL-170300-
RHODE ISLAND
  
CITY           SKY/WX    TMP DP  RH WIND       PRES   REMARKS
PROVIDENCE     CLEAR     58  33  39 NW3       30.12R                  
NEWPORT        CLEAR     52  37  56 CALM      30.11R                  
BLOCK ISLAND   CLEAR     50  39  66 SW16      30.15R                  
SMITHFIELD     CLEAR     56  30  37 W5        30.13R                  
WESTERLY       CLEAR     54  41  61 SW5       30.13R                  
$$
 
CTZALL-170300-
CONNECTICUT
  
CITY           SKY/WX    TMP DP  RH WIND       PRES   REMARKS
BRADLEY INTL   CLEAR     59  31  34 NW7       30.14R                  
HARTFORD       CLEAR     60  30  32 NW5       30.13R                  
PLAINVILLE     FAIR      55  35  46 CALM      30.14R                  
BRIDGEPORT     CLEAR     55  40  56 S3        30.15R                  
DANBURY        CLEAR     51  35  54 CALM      30.16R                  
GROTON         CLEAR     52  45  77 S5        30.13R                  
NEW HAVEN      CLEAR     56  43  61 SW5       30.14R                  
CHESTER          N/A     57  28  33 NW5       30.14S                  
MERIDEN        CLEAR     56  33  42 CALM      30.14R                  
WILLIMANTIC    CLEAR     51  35  54 CALM      30.15R                  
OXFORD         CLEAR     52  31  44 N6        30.16R                  
$$

MEZ002-015-021-024-NHZ003-005-008-011-012-014-VTZ005-008-170300-
NORTHERN NEW ENGLAND
  
CITY           SKY/WX    TMP DP  RH WIND       PRES   REMARKS
PORTLAND ME    CLEAR     50  32  50 N12       30.15R                  
BANGOR ME      CLOUDY    44  27  51 NW16      30.16R                  
CONCORD NH     CLEAR     52  32  46 N7        30.15R                  
MANCHESTER NH  CLEAR     57  31  37 N9        30.12R                  
NASHUA NH      CLEAR     55  32  41 N7        30.14R                  
PORTSMOUTH NH  CLEAR     55  30  39 N5        30.12R                  
JAFFREY NH     CLEAR     49  32  52 VRB5      30.13R                  
KEENE NH       CLEAR     48  35  60 NE7       30.14R                  
BURLINGTON VT  PTCLDY    47  30  51 NE8       30.20S                  
MT. WASHINGTON BLWGSNOW  21  21 100 NW48        N/A  VSB 0   WCI  -1  
$$

NYZ052-076-170300-
EASTERN NEW YORK
  
CITY           SKY/WX    TMP DP  RH WIND       PRES   REMARKS
ALBANY         PTCLDY    53  26  35 W9        30.16R                  
NEW YORK CITY  MOCLDY    60  37  42 S8        30.14R                  
$$
 
ANZALL-170300-
MARINE OBSERVATIONS
  
STATION/POSITION TIME  TEMP    WIND        PRES    VSBY  WAVE
                       AIR SEA DIR/SP/G                  HT/PER
                 (UTC) (F)     (DEG/KT/KT) (MB)    (MI)  (FT/S)
BOSTON BUOY      0150   49     150/  4/  4 1019.2R         2/ 9
BUZZARDS BAY     0100   50     240/ 13/ 13 1020.0R
NANTUCKET SOUND  0150   49 47  210/  6/  8 1019.6R         1/ 4
MASS BAY-STELLWA 0004   49 47  200/  4/  6 1018.7R  1 7/8  3/11
ISLE OF SHOALS   0100   59      10/ 10/ 11 1018.9R
S OF BLOCK IS    0156      46                N/A           4/ 8
$$

......................KEY.........................
  SKY/WX - SKY CONDITION/PRESENT WEATHER
  TMP    - TEMPERATURE IN FAHRENHEIT
  DWPT   - DEWPOINT IN FAHRENHEIT
  RH     - RELATIVE HUMIDITY IN PERCENT
  WIND   - DIRECTION AND SPEED IN MPH
  PRES   - MEAN SEA LEVEL PRESSURE IN INCHES OF HG
  WCI    - WIND CHILL INDEX
  VSB    - VISIBILITY IN MILES
  HX     - HEAT INDEX
  TC     - TEMPERATURE IN CELSIUS
  VRB    - VARIABLE WIND DIRECTION
  N/A    - NOT AVAILABLE
  
      

Other recent Regional Weather Roundups

Mon Apr 22, 8:10am EDT

Mon Apr 22, 7:10am EDT

Mon Apr 22, 6:10am EDT

Mon Apr 22, 5:10am EDT

Mon Apr 22, 4:10am EDT

Mon Apr 22, 3:10am EDT

Mon Apr 22, 2:10am EDT

Mon Apr 22, 1:10am EDT

Mon Apr 22, 12:10am EDT

Sun Apr 21, 11:10pm EDT

Sun Apr 21, 10:10pm EDT

Sun Apr 21, 9:10pm EDT

Sun Apr 21, 8:10pm EDT

Sun Apr 21, 7:10pm EDT

Sun Apr 21, 6:10pm EDT

Sun Apr 21, 5:10pm EDT

Sun Apr 21, 4:10pm EDT

Sun Apr 21, 3:10pm EDT

Sun Apr 21, 2:10pm EDT

Sun Apr 21, 1:10pm EDT

Sun Apr 21, 12:10pm EDT

Sun Apr 21, 11:10am EDT

Sun Apr 21, 10:10am EDT

Sun Apr 21, 9:10am EDT

Sun Apr 21, 8:10am EDT

Sun Apr 21, 7:10am EDT

Sun Apr 21, 6:10am EDT

Sun Apr 21, 5:10am EDT

Sun Apr 21, 4:10am EDT

Sun Apr 21, 3:10am EDT

Sun Apr 21, 2:10am EDT

Sun Apr 21, 1:10am EDT

Sun Apr 21, 12:10am EDT

Sat Apr 20, 11:10pm EDT

Sat Apr 20, 10:10pm EDT

Sat Apr 20, 9:10pm EDT

Sat Apr 20, 8:10pm EDT

Sat Apr 20, 7:10pm EDT

Sat Apr 20, 6:10pm EDT

Sat Apr 20, 5:10pm EDT

Sat Apr 20, 4:10pm EDT

Sat Apr 20, 3:10pm EDT

Sat Apr 20, 2:10pm EDT

Sat Apr 20, 1:10pm EDT

Sat Apr 20, 12:10pm EDT

Sat Apr 20, 11:10am EDT

Sat Apr 20, 10:10am EDT

Sat Apr 20, 9:10am EDT

Sat Apr 20, 8:10am EDT

Sat Apr 20, 7:10am EDT

Sat Apr 20, 6:10am EDT

Sat Apr 20, 5:10am EDT

Sat Apr 20, 4:10am EDT

Sat Apr 20, 3:10am EDT

Sat Apr 20, 2:10am EDT

Sat Apr 20, 1:10am EDT

Sat Apr 20, 12:10am EDT

Fri Apr 19, 11:10pm EDT

Fri Apr 19, 10:10pm EDT

Fri Apr 19, 9:10pm EDT

Fri Apr 19, 8:10pm EDT

Fri Apr 19, 7:10pm EDT

Fri Apr 19, 6:10pm EDT

Fri Apr 19, 5:10pm EDT

Fri Apr 19, 4:10pm EDT

Fri Apr 19, 3:10pm EDT

Fri Apr 19, 2:10pm EDT

Fri Apr 19, 1:10pm EDT

Fri Apr 19, 12:10pm EDT

Fri Apr 19, 11:10am EDT

Fri Apr 19, 10:10am EDT

Fri Apr 19, 9:10am EDT

Fri Apr 19, 8:10am EDT

Fri Apr 19, 7:10am EDT

Fri Apr 19, 6:10am EDT

Fri Apr 19, 5:10am EDT

Fri Apr 19, 4:10am EDT

Fri Apr 19, 3:10am EDT

Fri Apr 19, 2:10am EDT

Fri Apr 19, 1:10am EDT

Fri Apr 19, 12:10am EDT

Thu Apr 18, 11:10pm EDT

Thu Apr 18, 10:10pm EDT

Thu Apr 18, 9:10pm EDT

Thu Apr 18, 8:10pm EDT

Thu Apr 18, 7:10pm EDT

Thu Apr 18, 6:10pm EDT

Thu Apr 18, 5:10pm EDT

Thu Apr 18, 4:10pm EDT

Thu Apr 18, 3:10pm EDT

Thu Apr 18, 2:10pm EDT

Thu Apr 18, 1:10pm EDT

Thu Apr 18, 12:10pm EDT

Thu Apr 18, 11:10am EDT

Thu Apr 18, 10:10am EDT

Thu Apr 18, 9:10am EDT

Thu Apr 18, 8:10am EDT

Thu Apr 18, 7:10am EDT

Thu Apr 18, 6:10am EDT

Thu Apr 18, 5:10am EDT

Thu Apr 18, 4:10am EDT

Thu Apr 18, 3:10am EDT

Thu Apr 18, 2:10am EDT

Thu Apr 18, 1:10am EDT

Thu Apr 18, 12:10am EDT

Wed Apr 17, 11:10pm EDT

Wed Apr 17, 10:10pm EDT

Wed Apr 17, 9:10pm EDT

Wed Apr 17, 8:10pm EDT

Wed Apr 17, 7:10pm EDT

Wed Apr 17, 6:10pm EDT

Wed Apr 17, 5:10pm EDT

Wed Apr 17, 4:10pm EDT

Wed Apr 17, 3:10pm EDT

Wed Apr 17, 2:10pm EDT

Wed Apr 17, 1:10pm EDT

Wed Apr 17, 12:10pm EDT

Wed Apr 17, 11:10am EDT

Wed Apr 17, 10:10am EDT

Wed Apr 17, 9:10am EDT

Wed Apr 17, 8:10am EDT

Wed Apr 17, 7:10am EDT

Wed Apr 17, 6:10am EDT

Wed Apr 17, 5:10am EDT

Wed Apr 17, 4:10am EDT

Wed Apr 17, 3:10am EDT

Wed Apr 17, 2:10am EDT

Wed Apr 17, 1:10am EDT

Wed Apr 17, 12:10am EDT

Tue Apr 16, 11:10pm EDT

Tue Apr 16, 9:10pm EDT

Tue Apr 16, 8:10pm EDT

Tue Apr 16, 7:10pm EDT

Tue Apr 16, 6:10pm EDT

Tue Apr 16, 5:10pm EDT

Tue Apr 16, 4:10pm EDT

Tue Apr 16, 3:10pm EDT

Tue Apr 16, 2:10pm EDT

Tue Apr 16, 1:10pm EDT

Tue Apr 16, 12:10pm EDT

Tue Apr 16, 11:10am EDT

Tue Apr 16, 10:10am EDT

Tue Apr 16, 9:10am EDT

Tue Apr 16, 8:10am EDT

Tue Apr 16, 7:10am EDT

Tue Apr 16, 6:10am EDT

Tue Apr 16, 5:10am EDT

Tue Apr 16, 4:10am EDT

Tue Apr 16, 3:10am EDT

Tue Apr 16, 2:10am EDT

Tue Apr 16, 1:10am EDT

Tue Apr 16, 12:10am EDT

Mon Apr 15, 11:10pm EDT

Mon Apr 15, 10:10pm EDT

Mon Apr 15, 9:10pm EDT

Mon Apr 15, 8:10pm EDT

Mon Apr 15, 7:10pm EDT

Mon Apr 15, 6:10pm EDT

Mon Apr 15, 5:10pm EDT

Mon Apr 15, 4:10pm EDT

Mon Apr 15, 3:10pm EDT

Mon Apr 15, 2:10pm EDT

Mon Apr 15, 1:10pm EDT

Mon Apr 15, 12:10pm EDT

Mon Apr 15, 11:10am EDT

Mon Apr 15, 10:10am EDT

Mon Apr 15, 9:10am EDT